sat.trackr.live / text

‹ back to catalog

STARLINK-34109

NORAD 63807 · 2025-092D

PAYLOAD ACTIVE UNKNOWN

§ Identity

Operator
Country
US
Launch date
2025-05-04
Launch site
AFETR
Launch vehicle
Mass (kg)
RCS (m²)

Purposes: comms

External: N2YO · Heavens-Above · Gunter

§ Orbital elements

Epoch: 2026-05-25T04:02:27.852288Z

Period
94.26 min
Inclination
42.9994°
Eccentricity
0.0002110
Mean motion
15.27620847 rev/d
Perigee alt
481.5 km
Apogee alt
484.4 km
Semi-major
6,861.1 km
B*
8.0748e-4
RAAN
100.4088°
Arg perigee
276.5444°
Mean anomaly
83.5167°
Rev number
6,031

§ Raw data

STARLINK-341091 63807U 25092D   26145.16837792  .00022053  00000+0  80748-3 0  99942 63807  42.9994 100.4088 0002110 276.5444  83.5167 15.27620847 60312

JSON: /api/v1/satellites/63807 · /tle

For live sub-satellite position, see the globe view (requires WebGL).

§ Visibility from observer

Set your observer location to see the next 7 days of passes ≥ 10°. The values pass through the URL so the page stays shareable.

No JS? Fill the form by hand. The geolocation button needs JavaScript.